Broken Bow, NE

4:40 PM CDT on June 24, 2017 (GMT -0500)
Broken Bow Municipal

Weather History for KBBW - March, 2013

Change the Weather History Date:

Sunday, March 3, 2013

  Actual Average Record
Temperature  
Mean Temperature 41 °F 33 °F  
Max Temperature 53 °F 46 °F 78 °F (1983)
Min Temperature 28 °F 20 °F -31 °F (1960)
Degree Days  
Heating Degree Days 24 32  
Month to date heating degree days 103 97  
Cooling Degree Days 0 0  
Month to date cooling degree days 0 0  
Year to date cooling degree days 0 0  
Moisture  
Dew Point 33 °F    
Average Humidity 77    
Maximum Humidity 100    
Minimum Humidity 54    
Precipitation  
Precipitation 0.00 in 0.02 in 1.10 in (1915)
Sea Level Pressure  
Sea Level Pressure 29.76 in    
Wind  
Wind Speed 5 mph (SE)    
Max Wind Speed 15 mph    
Max Gust Speed 18 mph    
Visibility 9 miles    
Events      
T = Trace of Precipitation, MM = Missing Value Source: NWS Daily Summary

Daily Weather History Graph

Daily Weather History Graph

Search for Another Location

Airport or City:

Trip Planner

Search our weather history database for the weather conditions in past years. The results will help you decide how hot, cold, wet, or windy it might be!

Date:

Astronomy

Mar. 03, 2013 Rise Set
Actual Time 7:09 AM CST 6:31 PM CST
Civil Twilight 6:41 AM CST 6:59 PM CST
Nautical Twilight 6:09 AM CST 7:31 PM CST
Astronomical Twilight 5:37 AM CST 8:03 PM CST
Moon 12:16 AM CST (3/3) 10:21 AM CST (3/3)
Length of Visible Light 12h 17m
Length of Day
11h 22m
Waning Gibbous, 63% of the Moon is Illuminated
Mar 3
Waning Gibbous
Mar 4
Last Quarter
Mar 11
New
Mar 19
First Quarter
Mar 27
Full

Hourly Weather History & Observations

Time (CST) Temp. Windchill Dew Point Humidity Pressure Visibility Wind Dir Wind Speed Gust Speed Precip Events Conditions
12:53 AM 32.0 °F - 30.0 °F 92% 30.00 in 8.0 mi Calm Calm - N/A   Clear
1:53 AM 30.9 °F - 28.9 °F 92% 29.97 in 9.0 mi Calm Calm - N/A   Clear
2:53 AM 33.1 °F - 30.0 °F 89% 29.93 in 10.0 mi Calm Calm - N/A   Clear
3:53 AM 30.0 °F - 28.0 °F 92% 29.90 in 10.0 mi Calm Calm - N/A   Clear
4:53 AM 28.9 °F - 27.0 °F 92% 29.89 in 10.0 mi Calm Calm - N/A   Clear
5:53 AM 35.1 °F - 30.0 °F 82% 29.89 in 10.0 mi Calm Calm - N/A   Partly Cloudy
6:53 AM 30.0 °F - 28.0 °F 92% 29.88 in 10.0 mi Calm Calm - N/A   Clear
7:53 AM 30.0 °F - 28.0 °F 92% 29.87 in 10.0 mi Calm Calm - N/A   Clear
8:53 AM 33.1 °F - 30.0 °F 89% 29.85 in 10.0 mi Calm Calm - N/A   Clear
9:53 AM 39.0 °F - 34.0 °F 82% 29.83 in 10.0 mi Calm Calm - N/A   Clear
10:53 AM 44.1 °F - 36.0 °F 73% 29.78 in 10.0 mi Calm Calm - N/A   Clear
11:53 AM 50.0 °F - 37.0 °F 61% 29.75 in 10.0 mi ESE 5.8 mph - N/A   Clear
12:53 PM 53.1 °F - 37.0 °F 55% 29.70 in 10.0 mi SSE 10.4 mph - N/A   Clear
1:53 PM 50.0 °F - 37.0 °F 61% 29.66 in 10.0 mi SSE 12.7 mph - N/A   Scattered Clouds
2:53 PM 48.9 °F - 35.1 °F 59% 29.64 in 10.0 mi SSE 9.2 mph - N/A   Partly Cloudy
3:53 PM 48.9 °F - 37.0 °F 64% 29.63 in 10.0 mi SE 9.2 mph - N/A   Clear
4:53 PM 50.0 °F - 36.0 °F 59% 29.63 in 10.0 mi SSE 10.4 mph - N/A   Partly Cloudy
5:53 PM 46.0 °F 40.6 °F 34.0 °F 63% 29.62 in 10.0 mi SSE 11.5 mph - N/A   Partly Cloudy
6:53 PM 41.0 °F 35.2 °F 34.0 °F 76% 29.64 in 10.0 mi SSE 9.2 mph - N/A   Clear
7:53 PM 39.0 °F 33.4 °F 35.1 °F 86% 29.64 in 10.0 mi SSE 8.1 mph - N/A   Clear
8:53 PM 34.0 °F 29.8 °F 33.1 °F 96% 29.64 in 5.0 mi ESE 4.6 mph - N/A   Partly Cloudy
9:53 PM 35.1 °F 28.6 °F 33.1 °F 92% 29.62 in 8.0 mi SE 8.1 mph - N/A   Clear
10:53 PM 34.0 °F 29.8 °F 32.0 °F 92% 29.59 in 7.0 mi SSE 4.6 mph - N/A   Clear
11:53 PM 30.9 °F 27.5 °F 30.0 °F 96% 29.58 in 6.0 mi ESE 3.5 mph - N/A   Clear